Wetbulb
57.09 60.05 61.00 60.39 60.69 61.41 59.65 57.51 55.12 49.93 46.60 45.14 43.80 44.10 43.02 42.76 41.78 40.63 39.94 39.38 38.50 37.52 38.07 37.17 36.84 37.32 36.72 36.69 37.13 36.82 35.71 35.56 33.67 35.07 35.68 36.64 36.29 35.39 36.01 36.80 36.14 35.14 35.35
54.27 56.27 59.21 58.62 56.00 56.59 53.72 50.34 47.82 46.09 45.01 43.35 42.18 40.73 41.23 40.49 39.87 38.96 37.57 37.90 37.17 36.28 36.59 36.24 35.19 35.86 35.74 36.00 35.93 35.18 35.02 34.86 33.77 31.45 33.41 34.46 34.41 35.06 34.91 34.28 34.28 35.09 34.56
52.21 52.70 55.16 55.36 50.62 50.57 47.97 45.50 43.25 41.97 41.14 40.38 38.78 39.64 38.60 39.25 38.32 38.21 37.06 37.02 36.70 36.37 36.04 35.35 34.66 34.58 33.97 34.46 34.88 34.34 34.47 33.96 32.68 31.69 31.95 34.80 33.81 33.57 32.54 33.09 32.22 32.96 34.31
50.21 50.47 51.24 51.33 50.81 49.88 46.95 43.32 41.16 41.07 38.22 37.81 37.90 37.83 37.16 37.85 37.09 36.61 36.31 35.89 35.55 35.54 36.03 35.56 34.72 34.09 33.84 34.04 33.69 33.65 33.56 32.84 31.83 31.67 32.20 32.59 32.16 32.05 31.49 29.48 28.70 31.00 30.53
47.84 48.28 48.87 48.56 48.08 46.22 43.40 40.72 39.22 39.08 38.43 37.50 36.27 35.58 36.08 35.65 35.99 35.28 35.05 34.67 34.31 33.92 34.32 34.13 34.26 33.53 34.19 35.07 33.88 33.62 33.35 32.54 31.90 31.57 31.50 31.31 30.87 29.62 28.06 28.60 27.71 29.00 29.86
46.29 46.36 46.94 43.98 40.60 38.90 36.72 35.60 35.60 34.56 34.38 32.56 33.45 33.13 33.67 34.25 36.56 36.58 35.11 33.93 33.50 32.73 32.20 32.44 32.70 31.04 32.19 33.04 33.24 34.00 34.93 32.92 30.84 30.51 30.98 29.55 29.16 29.13 29.06 27.81 27.59 25.69 24.15
43.20 41.24 38.89 37.94 36.62 36.71 35.39 33.91 32.72 32.61 31.73 32.22 31.94 32.39 32.51 32.89 36.18 36.31 35.28 33.41 32.78 32.61 31.96 31.25 30.76 30.40 31.29 31.67 32.96 33.57 33.53 34.60 34.44 32.47 30.28 30.30 29.28 29.25 28.98 27.53 27.63 26.18 25.42
40.14 38.01 36.29 35.84 34.66 32.74 31.84 31.61 31.40 30.81 31.03 30.55 30.85 31.95 32.28 32.04 35.97 35.63 33.94 32.68 32.34 32.02 31.58 31.61 31.02 30.65 31.37 31.59 31.53 31.32 32.23 32.38 31.59 31.98 31.67 31.40 30.95 30.32 29.64 29.31 28.09 26.39 26.64
38.27 36.85 35.55 35.33 33.99 32.14 31.14 29.96 29.93 30.00 30.20 30.49 30.90 31.41 31.87 32.14 35.64 34.81 32.69 31.36 30.80 30.66 31.19 31.62 31.84 31.62 32.63 33.11 31.28 30.61 31.06 31.05 32.35 32.84 31.47 31.91 32.17 32.06 31.11 27.19 23.45 25.88 22.83
37.58 36.59 35.49 34.57 33.48 32.42 32.31 31.19 30.98 30.75 30.52 29.70 30.44 31.20 31.52 32.64 35.57 34.81 32.42 31.04 30.30 29.77 30.16 30.80 30.84 32.03 32.79 33.12 31.39 30.64 28.94 30.22 30.56 29.32 30.18 28.97 29.19 28.33 29.28 25.91 23.96 23.19 23.74
36.32 34.91 33.41 33.15 32.88 33.35 33.02 31.18 31.04 30.38 29.37 29.65 29.68 30.10 30.75 31.93 33.79 35.22 33.85 30.90 30.60 29.84 29.54 29.33 30.40 32.80 32.49 32.90 33.15 31.54 30.96 31.84 30.73 28.79 28.75 27.14 27.18 27.49 27.70 27.15 25.23 23.47 21.37
33.88 32.46 32.05 32.09 32.18 32.49 32.30 31.24 30.54 30.12 29.14 28.74 28.53 27.88 28.27 29.27 32.37 35.09 35.08 33.00 32.73 30.56 29.89 30.45 30.72 32.15 32.74 32.97 32.37 33.19 33.34 32.06 30.30 28.73 26.91 26.06 27.00 27.66 28.41 28.20 23.30 22.86 23.31
31.76 31.37 31.97 31.97 31.91 31.98 31.52 30.11 29.06 29.34 28.67 27.65 27.11 26.42 25.86 27.05 28.86 33.48 34.56 34.58 32.61 30.77 31.25 31.51 32.15 32.29 32.43 32.57 33.15 33.50 31.47 29.59 28.80 26.80 25.17 25.85 28.21 28.19 22.04 20.58 20.76 20.11 18.79
31.89 31.39 31.34 30.81 30.80 30.97 31.01 30.36 30.24 29.11 28.69 28.11 26.97 26.82 26.67 25.76 26.29 28.50 30.99 32.74 32.56 32.02 31.39 31.18 31.17 31.00 30.86 30.65 29.91 31.19 30.50 28.69 27.61 26.11 25.16 26.28 25.42 21.17 20.57 21.57 18.78 19.75 17.19
31.90 30.38 31.04 31.29 30.65 29.68 29.32 29.56 28.80 30.03 30.30 29.12 28.76 28.89 27.47 25.44 26.17 28.07 29.30 30.63 31.77 32.41 31.32 30.28 28.98 28.12 27.58 27.98 28.68 28.64 27.93 26.05 22.95 22.81 22.90 22.84 21.46 20.61 19.07 19.65 18.24 15.86 13.82
30.53 29.73 30.38 29.98 29.07 28.86 28.41 27.97 30.38 31.17 30.90 32.11 31.96 30.76 30.43 30.83 30.73 30.33 30.73 31.32 32.35 33.09 30.29 28.36 27.35 26.88 26.23 26.13 26.27 26.44 25.87 24.00 22.91 22.44 22.88 21.28 20.61 19.65 18.98 18.25 16.88 13.96 12.61
29.66 29.38 29.46 27.67 28.20 28.08 27.29 26.98 25.97 27.26 29.15 30.13 31.22 31.32 31.75 30.51 31.61 31.41 31.25 31.75 32.76 33.32 29.11 27.35 26.56 26.16 25.87 25.76 25.75 25.78 25.54 24.06 22.62 21.55 20.74 19.74 18.90 18.16 14.44 14.04 14.67 14.22 11.63
26.99 26.00 28.15 28.69 28.46 28.25 27.59 27.12 27.12 26.67 24.11 24.76 29.44 30.11 31.19 31.30 31.12 32.33 33.03 33.53 29.87 30.46 28.44 26.98 26.44 26.41 26.66 26.59 25.88 25.51 26.29 24.43 20.96 19.01 18.71 18.46 17.20 15.17 12.36 11.31 12.36 9.41 9.29
26.16 28.08 27.87 28.18 27.90 26.86 27.21 26.62 26.48 26.32 26.04 26.84 27.14 28.10 29.82 31.06 31.32 31.82 32.74 29.72 27.88 27.80 28.19 27.67 27.96 28.02 27.99 26.93 25.84 25.03 24.10 22.45 18.94 17.37 17.39 16.16 14.73 11.79 9.04 9.69 10.57 7.90 6.19
25.18 22.80 22.49 26.61 27.21 26.70 26.37 25.59 25.35 25.26 25.82 26.09 26.38 26.47 28.13 27.99 27.96 28.93 28.75 29.16 28.72 28.98 29.16 28.68 27.24 25.15 23.98 23.34 22.32 21.79 20.94 19.87 18.39 17.00 15.95 15.36 13.50 12.41 10.83 7.93 6.67 6.33 3.15
22.26 23.57 17.58 24.25 24.97 25.28 25.24 24.89 24.53 24.70 24.97 25.91 26.50 26.81 27.85 26.88 27.93 28.40 28.49 28.03 28.03 28.54 28.28 26.24 23.06 22.46 20.88 19.81 19.28 18.60 17.65 16.89 15.74 14.38 13.87 13.59 12.24 10.24 10.62 10.80 7.25 3.38 2.52
18.90 19.88 20.60 20.26 20.69 20.97 21.30 21.71 21.88 22.12 22.57 22.53 23.16 23.64 26.71 25.55 24.57 25.56 26.92 28.08 29.44 27.63 26.07 24.20 22.35 20.96 18.81 16.86 16.14 15.89 15.15 14.80 15.13 13.89 12.67 12.15 10.32 9.73 9.08 8.68 8.63 7.62 3.44
15.89 16.18 17.24 17.61 17.73 15.13 17.19 18.25 18.29 18.58 18.90 19.44 19.70 19.18 18.47 19.80 21.61 23.20 23.06 24.92 24.05 21.51 21.15 19.85 19.36 17.74 16.63 15.31 15.44 15.09 14.23 13.52 14.28 13.35 11.66 9.53 8.47 7.97 7.65 7.16 6.40 6.11 5.61
12.56 12.88 12.92 13.70 14.27 12.68 13.64 14.51 15.11 13.08 14.02 14.60 16.06 17.19 17.29 17.22 17.69 18.96 21.33 21.48 20.69 19.78 19.32 17.52 16.60 16.24 15.30 13.14 12.57 12.78 13.78 14.43 13.76 12.57 11.78 9.77 7.82 7.55 7.12 6.89 6.90 5.48 5.08
9.90 9.61 9.62 10.05 9.78 10.31 11.05 11.93 12.33 12.86 13.33 13.85 14.04 14.33 14.67 14.58 14.50 14.85 15.24 16.82 14.68 15.61 15.72 15.06 13.52 12.73 12.92 11.96 10.77 10.27 10.57 12.64 10.67 10.17 9.53 9.13 7.98 7.10 6.37 6.08 5.22 4.61 3.45
6.79 6.82 6.89 7.34 7.43 7.72 7.81 8.07 8.95 9.85 10.14 10.95 11.55 12.37 12.63 12.49 12.77 12.83 12.76 13.53 13.25 11.97 12.64 11.73 11.03 9.63 10.06 10.59 9.91 10.00 9.47 10.28 8.77 7.18 6.79 6.29 5.74 5.83 5.63 4.51 3.72 3.71 2.70
MSLP
1012.98 1013.09 1013.58 1014.15 1014.85 1015.59 1016.19 1016.99 1017.72 1018.66 1019.57 1020.36 1020.97 1021.28 1022.16 1023.11 1024.02 1024.12 1024.87 1025.50 1026.48 1026.75 1027.44 1027.70 1028.42 1028.89 1028.93 1029.27 1029.50 1029.68 1029.65 1029.71 1029.50 1029.56 1029.97 1030.11 1030.29 1030.31 1030.25 1030.34 1030.14 1029.77 1029.38
1013.80 1013.61 1013.62 1014.25 1014.81 1015.38 1015.94 1016.89 1017.63 1018.45 1019.12 1019.90 1020.12 1021.07 1021.84 1022.45 1023.31 1023.68 1024.64 1025.51 1026.17 1026.76 1027.18 1027.63 1028.28 1028.50 1028.84 1029.14 1029.46 1029.37 1029.48 1029.92 1029.75 1030.01 1030.04 1029.96 1030.07 1030.12 1030.19 1030.21 1030.20 1029.61 1029.34
1014.33 1014.58 1014.31 1014.46 1015.38 1015.57 1015.97 1016.69 1017.55 1018.33 1018.96 1019.51 1020.45 1020.70 1021.57 1022.31 1023.19 1023.57 1024.23 1025.23 1025.99 1026.69 1026.81 1027.08 1027.71 1028.34 1028.42 1028.91 1029.27 1029.39 1029.44 1029.90 1030.08 1030.29 1030.04 1030.06 1030.00 1029.85 1029.93 1030.06 1030.19 1029.60 1029.30
1013.81 1014.75 1015.11 1015.55 1015.92 1016.18 1016.50 1016.94 1017.54 1018.09 1018.73 1019.82 1019.92 1020.46 1021.42 1022.22 1022.97 1023.31 1024.08 1024.92 1025.95 1026.59 1026.72 1026.90 1027.38 1027.92 1028.28 1028.78 1029.14 1029.40 1029.60 1029.81 1030.12 1030.27 1029.88 1029.83 1029.85 1029.68 1029.86 1030.17 1030.08 1029.63 1029.24
1013.77 1013.98 1014.83 1015.82 1016.37 1016.75 1016.95 1017.41 1017.65 1018.02 1018.45 1019.16 1019.84 1020.46 1020.87 1021.98 1022.47 1022.90 1023.87 1024.50 1025.47 1026.23 1026.74 1026.82 1027.40 1027.74 1028.08 1028.50 1028.83 1029.34 1029.42 1029.45 1029.88 1029.97 1029.68 1029.72 1029.59 1029.74 1030.13 1030.58 1030.57 1029.94 1029.25
1013.39 1014.10 1014.51 1015.16 1016.14 1017.18 1017.69 1017.92 1018.34 1018.72 1019.00 1019.37 1019.89 1020.58 1020.98 1021.75 1022.30 1022.62 1023.13 1024.18 1024.73 1025.65 1026.38 1026.78 1027.38 1027.89 1028.26 1028.66 1028.69 1029.28 1028.88 1029.26 1029.63 1029.61 1029.39 1029.46 1029.48 1029.67 1030.01 1030.37 1030.50 1030.19 1029.91
1013.72 1014.15 1014.93 1015.28 1015.82 1016.92 1017.96 1018.52 1018.71 1019.12 1019.44 1019.85 1020.08 1020.63 1021.16 1021.83 1022.19 1022.84 1023.04 1023.74 1024.52 1025.10 1026.11 1026.50 1027.10 1027.62 1028.12 1028.45 1028.49 1029.06 1028.92 1029.05 1029.18 1029.22 1029.20 1029.21 1029.33 1029.49 1029.90 1030.10 1030.28 1030.49 1030.38
1014.00 1014.54 1015.29 1015.92 1016.22 1016.70 1017.41 1018.43 1018.95 1019.36 1019.59 1019.80 1020.29 1020.61 1020.92 1021.60 1021.95 1022.33 1023.33 1023.92 1024.34 1025.04 1025.68 1026.04 1026.55 1027.23 1027.63 1028.03 1028.33 1028.83 1028.77 1029.00 1029.10 1028.99 1028.94 1028.92 1029.10 1029.35 1029.54 1029.87 1030.05 1030.32 1030.24
1014.24 1014.86 1015.47 1016.13 1016.37 1016.65 1017.12 1018.06 1018.72 1019.21 1019.80 1020.12 1020.32 1020.56 1021.10 1021.60 1022.02 1022.22 1023.15 1023.74 1024.34 1024.94 1025.39 1025.54 1026.07 1026.80 1027.20 1027.44 1028.02 1028.35 1028.54 1028.61 1028.60 1028.66 1028.88 1029.02 1028.98 1028.87 1029.01 1029.67 1029.81 1029.91 1029.84
1014.10 1014.44 1015.38 1015.97 1016.55 1016.74 1017.13 1017.70 1018.14 1018.88 1019.42 1020.14 1020.42 1020.80 1021.10 1021.73 1022.18 1022.57 1022.91 1023.39 1024.17 1024.77 1025.03 1025.62 1026.01 1026.34 1026.59 1026.93 1027.48 1027.85 1028.11 1028.18 1028.37 1028.64 1028.72 1029.03 1028.97 1028.88 1029.00 1029.46 1029.71 1029.91 1029.91
1014.51 1014.80 1015.08 1015.95 1016.49 1016.89 1017.28 1018.01 1018.25 1018.91 1019.56 1020.13 1020.72 1021.34 1021.66 1021.92 1022.17 1022.30 1022.92 1023.40 1023.79 1024.48 1024.92 1025.43 1025.76 1025.83 1026.14 1026.59 1026.88 1027.26 1027.40 1027.71 1027.76 1028.10 1028.44 1028.74 1028.79 1028.56 1028.77 1029.09 1029.26 1029.53 1029.56
1014.44 1014.99 1014.98 1015.35 1016.09 1016.66 1017.27 1017.98 1018.69 1019.14 1019.74 1020.31 1020.91 1021.40 1021.70 1021.97 1022.20 1022.35 1022.66 1023.28 1023.79 1024.28 1024.71 1024.95 1025.30 1025.51 1025.81 1026.17 1026.36 1026.49 1026.63 1026.93 1027.44 1027.83 1028.24 1028.18 1028.06 1027.93 1028.06 1028.27 1028.77 1028.94 1029.03
1014.98 1014.99 1015.82 1015.91 1016.21 1016.77 1017.01 1017.35 1018.16 1018.79 1019.62 1020.16 1020.41 1020.78 1021.18 1021.54 1021.86 1022.29 1022.53 1023.02 1023.71 1024.27 1024.38 1024.47 1024.82 1025.04 1025.62 1025.67 1025.74 1025.80 1026.08 1026.46 1026.91 1027.38 1027.58 1027.41 1027.22 1027.17 1028.13 1028.51 1028.50 1028.70 1028.96
1015.37 1015.67 1015.93 1016.25 1016.71 1016.98 1017.35 1017.49 1018.01 1018.49 1018.93 1019.30 1019.74 1020.05 1020.42 1020.95 1021.36 1021.85 1022.17 1022.45 1023.08 1023.74 1024.06 1024.26 1024.59 1024.79 1025.14 1025.37 1025.55 1025.37 1025.59 1026.01 1026.42 1026.80 1027.15 1027.10 1027.00 1027.54 1028.09 1028.07 1028.33 1028.47 1028.53
1015.86 1015.90 1016.09 1016.34 1016.75 1017.13 1017.20 1017.07 1017.44 1018.00 1018.61 1019.06 1019.18 1019.49 1019.66 1020.10 1020.40 1021.00 1021.54 1021.93 1022.32 1022.61 1023.40 1023.91 1024.24 1024.32 1024.55 1024.75 1024.89 1025.02 1025.34 1025.74 1026.11 1026.45 1026.79 1026.94 1027.14 1027.50 1027.76 1027.84 1027.94 1028.18 1028.55
1016.39 1016.41 1016.41 1016.56 1016.82 1016.93 1017.04 1017.36 1017.68 1018.04 1018.41 1018.61 1018.68 1018.80 1019.14 1019.56 1020.02 1020.51 1021.05 1021.51 1021.90 1022.32 1022.74 1022.96 1023.12 1023.45 1023.67 1023.97 1024.14 1024.40 1024.75 1025.17 1025.62 1026.05 1026.36 1026.61 1026.83 1027.12 1027.41 1027.60 1027.70 1027.91 1028.19
1017.22 1016.95 1016.84 1016.93 1017.05 1017.20 1017.38 1017.62 1017.90 1018.05 1018.30 1018.48 1018.55 1018.76 1019.02 1019.33 1019.62 1019.91 1020.34 1020.76 1021.05 1021.60 1021.58 1021.84 1022.23 1022.43 1022.66 1023.05 1023.31 1023.56 1023.75 1024.16 1024.80 1025.29 1025.69 1026.14 1026.53 1026.74 1027.19 1027.50 1027.43 1027.67 1027.87
1017.77 1017.45 1017.21 1017.16 1017.28 1017.45 1017.63 1017.77 1017.94 1018.02 1018.27 1018.40 1018.41 1018.78 1019.00 1019.21 1019.46 1019.54 1019.77 1020.13 1020.50 1020.67 1020.69 1020.47 1021.37 1021.25 1021.58 1021.94 1022.27 1022.59 1022.80 1023.27 1023.95 1024.63 1025.03 1025.39 1025.90 1026.40 1026.78 1026.99 1027.32 1027.55 1027.69
1018.42 1018.29 1018.09 1017.87 1017.75 1017.86 1017.96 1017.96 1017.88 1017.85 1017.93 1018.01 1018.02 1018.05 1018.32 1018.79 1019.04 1019.35 1019.56 1019.43 1019.54 1019.88 1019.42 1019.53 1020.17 1020.31 1020.51 1021.15 1021.57 1021.98 1022.48 1022.87 1023.33 1023.92 1024.38 1024.86 1025.34 1025.81 1026.25 1026.53 1026.89 1027.38 1027.78
1019.08 1018.98 1018.87 1018.65 1018.65 1018.55 1018.35 1018.24 1018.22 1018.12 1017.94 1017.79 1017.75 1017.78 1017.92 1018.46 1018.21 1018.26 1018.58 1018.70 1018.97 1019.02 1018.85 1019.06 1019.50 1019.95 1020.33 1020.79 1021.21 1021.58 1022.04 1022.29 1022.69 1022.97 1023.51 1024.05 1024.50 1024.89 1025.21 1025.78 1026.25 1026.74 1027.41
1020.05 1019.63 1019.68 1019.46 1019.24 1018.92 1018.86 1018.78 1018.68 1018.42 1018.11 1017.86 1017.54 1017.50 1017.57 1017.70 1017.67 1017.72 1017.85 1018.04 1018.22 1018.20 1018.31 1018.64 1019.16 1019.55 1020.08 1020.71 1020.94 1020.96 1021.34 1021.70 1022.03 1022.60 1022.82 1023.20 1023.76 1024.22 1024.65 1024.96 1025.61 1026.11 1026.74
1020.77 1020.56 1020.25 1020.13 1019.80 1019.57 1019.21 1019.16 1018.96 1018.70 1018.44 1018.17 1017.93 1017.72 1017.66 1017.59 1017.45 1017.39 1017.40 1017.40 1017.33 1017.43 1017.58 1017.89 1018.31 1018.64 1019.04 1019.68 1020.25 1020.53 1020.67 1020.91 1021.33 1021.62 1022.28 1022.54 1023.13 1023.70 1024.08 1024.48 1024.86 1025.29 1026.02
1021.38 1021.09 1020.87 1020.73 1020.62 1020.19 1019.74 1019.49 1019.40 1019.08 1018.82 1018.51 1018.17 1018.06 1018.10 1017.89 1017.55 1017.23 1017.20 1017.13 1017.20 1017.32 1017.53 1017.80 1018.10 1018.40 1018.76 1019.12 1019.37 1019.62 1019.78 1019.90 1020.23 1020.82 1021.34 1021.79 1022.38 1022.94 1023.38 1023.81 1024.42 1024.80 1025.21
1021.69 1021.42 1021.27 1020.91 1020.71 1020.87 1020.58 1020.19 1019.81 1019.47 1019.26 1018.96 1018.50 1018.29 1018.16 1018.01 1017.88 1017.63 1017.33 1017.23 1017.22 1017.27 1017.44 1017.71 1017.85 1017.94 1018.10 1018.41 1018.68 1018.89 1019.02 1019.27 1019.52 1019.91 1020.46 1021.03 1021.54 1022.11 1022.65 1023.15 1023.70 1024.30 1024.46
1022.32 1022.03 1021.89 1021.70 1021.30 1021.04 1020.77 1020.55 1020.21 1019.82 1019.48 1019.26 1018.92 1018.70 1018.36 1018.13 1017.97 1017.83 1017.69 1017.53 1017.42 1017.40 1017.39 1017.51 1017.64 1017.79 1017.91 1018.10 1018.34 1018.62 1018.92 1019.23 1019.54 1019.90 1020.41 1020.90 1021.39 1021.86 1022.04 1022.58 1023.16 1023.44 1024.30
1022.69 1022.28 1022.02 1021.96 1021.61 1021.22 1021.12 1020.82 1020.57 1020.22 1019.80 1019.46 1019.25 1019.06 1018.75 1018.42 1018.19 1018.07 1017.88 1017.66 1017.48 1017.43 1017.36 1017.33 1017.36 1017.39 1017.47 1017.59 1017.85 1018.22 1018.61 1018.90 1019.16 1019.54 1019.97 1020.43 1020.97 1021.33 1021.78 1021.89 1022.67 1023.15 1023.60
Wind_Speed
16 16 14 12 13 12 9 8 10 10 11 11 12 13 12 11 9 10 9 10 9 8 6 7 6 6 5 4 3 2 2 1 2 2 1 2 3 3 4 4 4 4 4
9 11 11 9 6 10 9 8 10 11 11 11 14 12 12 11 11 11 11 9 10 9 9 8 7 5 6 5 4 4 3 2 1 2 2 1 1 3 4 4 4 5 5
7 7 8 7 7 8 9 9 9 11 11 12 11 11 11 12 10 10 10 10 9 9 9 9 9 8 6 4 4 4 4 3 3 2 2 1 1 1 2 3 5 4 5
8 7 6 5 6 7 7 9 10 11 12 10 12 11 9 10 10 10 10 10 8 7 8 8 8 7 7 6 4 4 3 3 2 3 2 2 2 2 1 3 5 4 8
8 9 8 6 6 5 6 8 9 10 11 12 12 10 12 9 9 12 11 11 10 9 7 6 6 6 8 6 4 4 5 3 3 3 2 2 1 1 2 1 3 6 8
10 8 8 7 6 5 5 6 6 6 8 8 8 9 11 7 14 16 14 11 10 10 9 8 6 7 7 7 6 4 3 5 6 4 2 2 2 2 2 1 4 4 4
6 6 6 7 8 7 5 6 7 8 7 8 9 10 9 7 17 16 15 9 9 9 9 9 7 5 7 6 9 10 7 9 9 5 4 3 1 2 1 3 4 5 5
6 5 5 5 6 7 8 7 6 7 10 10 9 9 9 7 20 19 13 9 8 8 9 9 8 8 8 7 6 6 5 5 5 4 4 2 1 2 2 1 3 6 6
5 5 6 6 7 9 9 9 7 7 7 8 8 8 9 7 19 20 15 8 7 8 7 8 8 8 12 13 7 6 5 5 6 6 2 5 7 6 4 1 2 3 4
6 7 6 6 6 8 9 10 8 7 6 4 6 7 7 8 16 19 14 6 7 6 6 6 10 9 13 16 9 7 7 6 5 3 2 5 4 3 6 3 1 2 4
4 5 6 5 5 5 5 4 7 7 7 6 6 4 5 6 11 19 18 6 6 6 6 6 6 16 13 15 16 7 7 3 5 2 2 5 5 5 5 5 4 3 3
5 4 6 7 6 6 8 5 5 6 7 6 6 4 3 3 7 17 19 13 10 6 6 5 5 14 15 17 13 13 13 9 3 3 4 6 5 4 5 5 4 3 3
3 4 3 4 4 5 8 9 8 8 7 7 7 7 6 5 5 14 17 18 14 6 4 7 11 13 17 15 17 15 11 5 5 5 7 6 5 2 3 1 4 3 4
2 3 3 4 4 4 3 4 5 7 8 8 8 8 6 6 6 7 7 10 15 12 10 6 8 10 11 10 7 10 4 5 6 5 6 4 2 2 2 2 1 2 1
2 3 3 3 4 3 3 5 6 6 8 7 7 7 8 8 10 13 11 9 9 10 7 5 6 6 7 7 7 6 5 5 5 4 5 4 3 2 2 2 2 1 2
3 2 1 1 2 2 2 2 7 7 9 12 10 9 5 6 13 21 21 20 17 16 7 7 7 7 8 8 8 7 7 7 6 6 6 5 5 4 4 2 2 3 3
5 3 2 2 1 1 1 3 4 5 9 13 14 13 13 11 12 19 22 22 21 17 9 7 8 8 9 8 8 8 8 8 7 6 6 6 5 4 3 2 3 3 3
5 5 3 2 1 1 2 3 4 4 5 4 12 12 15 14 15 16 19 17 9 14 9 8 9 9 9 9 8 8 7 6 6 6 6 6 5 4 3 3 3 3 2
6 5 4 3 2 2 2 3 4 5 5 6 3 9 13 17 16 15 16 8 9 10 10 9 10 9 8 7 6 5 6 6 7 7 7 6 6 5 3 3 3 3 2
6 7 5 4 4 4 3 3 4 4 5 6 6 5 5 8 8 8 8 8 9 8 6 7 6 4 4 6 6 6 6 7 7 7 7 7 6 6 6 5 4 4 4
5 5 5 4 4 4 4 6 6 6 6 5 6 4 9 6 6 7 7 8 9 9 8 7 6 6 5 6 6 7 7 7 7 7 7 7 7 7 6 5 4 4 2
4 5 5 4 4 4 4 4 4 5 6 6 5 4 12 6 6 7 8 8 8 6 6 7 7 7 7 8 7 7 8 8 8 8 7 7 7 7 6 6 6 5 5
5 5 5 5 5 5 5 4 5 5 5 5 4 3 2 5 7 7 7 6 4 4 4 4 5 5 6 6 7 8 8 9 9 8 8 8 8 8 7 7 6 6 6
4 4 5 4 3 4 5 5 5 5 5 5 5 5 4 4 5 6 6 4 4 4 5 5 6 8 6 6 6 7 7 6 6 8 10 8 8 9 7 6 7 7 6
4 4 4 4 4 4 5 5 5 5 6 6 5 5 5 4 4 4 4 4 2 3 5 5 4 6 9 9 7 8 7 9 5 6 6 6 8 9 7 6 7 7 6
4 4 4 4 4 4 4 5 5 5 5 5 5 6 5 5 5 5 4 4 3 3 5 3 4 7 7 7 9 9 9 11 9 9 7 7 7 7 6 7 9 6 8
Wind_Direction
212 208 204 203 207 209 194 181 173 153 163 170 165 161 162 163 170 147 146 147 150 147 148 151 153 159 157 157 176 181 162 227 213 115 89 289 319 348 348 342 340 328 335
234 218 206 197 175 181 166 161 157 167 170 175 162 160 164 166 165 152 148 157 154 158 160 156 160 169 159 162 182 174 161 166 191 175 240 250 343 338 342 334 336 332 332
237 241 227 171 171 177 163 159 162 161 164 163 158 161 169 163 159 152 148 156 158 167 166 167 163 171 163 170 185 171 160 167 152 192 227 214 230 86 344 331 326 329 335
198 223 236 227 207 191 171 165 164 166 161 173 166 153 151 163 159 150 150 151 156 163 167 168 163 169 166 172 179 171 164 154 189 239 223 204 201 101 48 359 332 343 326
196 191 202 201 212 194 169 172 165 172 172 171 160 150 148 161 164 155 157 154 159 157 163 159 163 167 165 177 170 182 186 171 196 232 229 209 179 68 75 310 304 320 309
189 199 192 167 153 161 158 153 161 153 154 140 146 151 149 163 164 162 157 162 159 161 166 159 160 143 166 192 213 245 210 198 215 233 234 212 200 143 138 7 334 350 337
192 169 166 162 155 154 148 154 156 161 143 157 152 157 160 165 164 168 157 154 157 160 165 161 163 171 183 191 206 222 225 237 232 234 237 230 190 145 107 303 321 310 281
188 164 164 163 152 140 144 160 163 164 168 167 165 166 159 173 175 167 156 150 153 164 170 168 169 175 189 190 187 213 220 209 221 229 240 239 61 120 180 203 296 289 276
193 178 171 175 164 157 161 165 166 161 174 183 172 158 165 165 178 168 162 152 158 168 171 171 175 181 191 193 196 209 216 217 213 200 227 272 263 241 210 133 243 309 301
187 176 168 171 169 176 177 176 172 171 172 165 168 173 159 163 181 179 169 158 165 169 162 176 190 189 195 199 203 204 221 219 192 183 206 284 258 227 209 189 190 243 279
158 152 149 158 170 175 161 159 162 164 150 154 158 150 159 169 185 185 184 177 176 174 182 189 196 203 203 211 212 209 221 193 211 200 244 255 240 233 225 200 196 204 232
144 157 158 156 156 151 154 138 147 153 157 159 156 158 161 166 196 199 197 194 193 183 194 187 188 201 212 219 219 227 227 228 173 203 234 245 236 215 219 219 188 203 243
125 125 148 136 145 161 168 161 159 166 182 185 184 188 185 175 180 205 205 204 208 205 191 188 188 200 223 222 228 232 230 188 195 216 241 237 233 132 76 181 201 191 218
99 120 126 148 152 158 175 171 188 190 193 192 194 200 184 175 178 189 202 207 207 209 206 205 202 206 212 227 221 236 198 186 202 218 241 247 92 113 207 200 180 222 224
106 117 128 138 173 183 209 185 193 202 207 209 214 204 187 190 203 196 193 197 203 202 182 180 199 202 211 219 220 212 196 186 197 201 228 234 211 203 206 189 180 212 204
34 36 53 131 152 185 190 211 237 247 228 236 221 198 191 212 199 199 202 206 207 203 190 204 205 208 214 217 219 214 209 207 209 205 218 216 219 209 205 188 170 175 210
2 26 34 15 28 300 237 233 242 226 243 237 227 220 206 196 197 196 202 205 205 201 207 205 217 211 216 217 216 217 219 205 192 204 205 209 208 208 169 216 204 181 201
360 17 355 0 330 280 244 242 242 239 220 219 232 222 222 215 214 207 206 207 207 209 212 203 225 213 215 214 207 213 215 181 184 191 201 200 193 196 183 188 202 187 192
0 358 351 339 333 309 293 265 252 246 243 248 202 221 220 223 226 229 227 218 209 223 212 211 219 221 213 209 205 203 209 207 186 190 197 191 186 179 192 191 186 184 165
3 4 348 334 329 320 300 283 275 261 260 252 244 222 187 199 214 215 214 214 224 230 223 226 213 196 194 197 196 199 205 201 199 192 192 191 188 188 190 177 175 163 181
348 352 355 329 328 327 315 302 296 287 276 262 253 218 209 215 224 218 209 213 226 232 225 207 191 200 196 209 209 200 203 205 201 198 197 189 184 188 195 178 168 163 173
351 344 344 334 328 318 317 308 299 291 282 277 274 245 239 223 223 230 235 235 235 221 208 201 205 204 196 195 201 205 205 207 202 190 197 186 181 186 178 183 181 175 160
355 349 345 339 333 326 310 306 302 296 291 290 291 291 223 255 259 247 245 245 226 201 194 194 210 207 194 195 199 205 207 206 204 187 191 182 181 183 184 184 184 183 180
351 345 337 330 339 324 313 318 314 301 289 292 299 294 282 280 272 279 286 261 243 228 224 223 225 227 212 203 203 205 213 208 190 188 184 185 184 183 176 180 184 186 182
346 342 334 328 326 319 315 317 316 316 315 313 310 305 304 300 293 291 287 283 268 257 245 232 218 224 227 211 204 200 201 207 176 165 177 182 185 181 181 179 185 178 184
331 333 327 320 315 318 314 314 312 313 309 308 306 304 303 303 300 296 292 289 278 265 266 249 226 218 214 220 209 203 197 201 189 176 170 178 185 186 186 183 182 184 181